N6TKA2 Weather Reports


Display with metric or nautical units.
time (UTC)temp
F
wind
direction
speed
MPH
gust
MPH
rain 1hr
in
rain 24hr
in
rain mn
in
humidity
%
barometer
mb
20260507051030 49 310 0.0 2.0 0.00 0.00 0.00 35 1019.1
20260507050523 49 310 0.0 2.0 0.00 0.00 0.00 34 1019.0
20260507050018 49 310 1.0 3.0 0.00 0.00 0.00 34 1019.0
20260507045512 50 310 2.0 4.0 0.00 0.00 0.00 34 1019.0
20260507045006 50 310 2.0 4.0 0.00 0.00 0.00 34 1018.9
20260507044500 50 309 2.0 4.0 0.00 0.00 0.00 34 1018.8
20260507043954 50 309 2.0 5.0 0.00 0.00 0.00 33 1018.7
20260507043448 50 309 3.0 7.0 0.00 0.00 0.00 33 1018.8
20260507042942 50 309 2.0 7.0 0.00 0.00 0.00 33 1018.7
20260507042436 51 305 1.0 4.0 0.00 0.00 0.00 33 1018.7
20260507041930 51 305 1.0 3.0 0.00 0.00 0.00 32 1018.7
20260507041424 52 305 0.0 3.0 0.00 0.00 0.00 32 1018.5
20260507040918 52 304 0.0 2.0 0.00 0.00 0.00 31 1018.4
20260507040412 52 304 1.0 3.0 0.00 0.00 0.00 31 1018.4
20260507035907 53 304 1.0 3.0 0.00 0.00 0.00 30 1018.4
20260507035621 54 304 1.0 5.0 0.00 0.00 0.00 30 1018.3
20260507034855 54 304 1.0 5.0 0.00 0.00 0.00 30 1018.2
20260507034610 54 304 0.0 2.0 0.00 0.00 0.00 30 1018.2
20260507033842 54 304 0.0 0.0 0.00 0.00 0.00 30 1018.1
20260507033336 54 304 0.0 1.0 0.00 0.00 0.00 29 1018.1
20260507032830 54 304 0.0 1.0 0.00 0.00 0.00 29 1017.9
20260507032326 54 304 0.0 1.0 0.00 0.00 0.00 29 1017.8
20260507031817 55 304 0.0 1.0 0.00 0.00 0.00 29 1017.7
20260507031313 56 304 0.0 3.0 0.00 0.00 0.00 28 1017.7
20260507030806 56 304 0.0 4.0 0.00 0.00 0.00 28 1017.6
20260507030300 56 304 1.0 3.0 0.00 0.00 0.00 28 1017.6
20260507030014 56 304 1.0 3.0 0.00 0.00 0.00 28 1017.3
20260507025248 57 304 0.0 2.0 0.00 0.00 0.00 28 1017.2
20260507024741 57 304 0.0 3.0 0.00 0.00 0.00 27 1017.1
20260507024236 58 304 0.0 5.0 0.00 0.00 0.00 27 1017.1
20260507023730 58 304 0.0 5.0 0.00 0.00 0.00 27 1017.1
20260507023224 59 303 1.0 4.0 0.00 0.00 0.00 27 1017.1
20260507022938 59 303 2.0 5.0 0.00 0.00 0.00 26 1017.0
20260507022212 60 303 3.0 10.0 0.00 0.00 0.00 26 1016.9
20260507021706 61 303 4.0 10.0 0.00 0.00 0.00 25 1016.9
20260507021200 61 314 4.0 9.0 0.00 0.00 0.00 25 1016.9
20260507020919 62 322 3.0 8.0 0.00 0.00 0.00 25 1016.9
20260507020148 63 317 2.0 8.0 0.00 0.00 0.00 24 1016.7
20260507015642 63 323 2.0 8.0 0.00 0.00 0.00 24 1016.6
20260507015136 63 331 3.0 10.0 0.00 0.00 0.00 24 1016.6
20260507014630 64 337 3.0 10.0 0.00 0.00 0.00 24 1016.6
20260507014123 64 332 4.0 10.0 0.00 0.00 0.00 24 1016.6
20260507013617 64 343 5.0 10.0 0.00 0.00 0.00 24 1016.5
20260507013111 64 338 5.0 9.0 0.00 0.00 0.00 23 1016.5
20260507012605 64 333 4.0 9.0 0.00 0.00 0.00 24 1016.4
20260507012100 64 280 5.0 11.0 0.00 0.00 0.00 24 1016.4
20260507011821 64 353 5.0 11.0 0.00 0.00 0.00 24 1016.4
20260507011049 64 4 6.0 11.0 0.00 0.00 0.00 24 1016.4
20260507010807 64 10 7.0 13.0 0.00 0.00 0.00 24 1016.4
20260507010255 65 341 5.0 13.0 0.00 0.00 0.00 24 1016.3
20260507005531 65 342 4.0 11.0 0.00 0.00 0.00 24 1016.3
20260507005025 64 345 4.0 11.0 0.00 0.00 0.00 24 1016.3
20260507004519 64 345 5.0 13.0 0.00 0.00 0.00 24 1016.3
20260507004013 64 302 5.0 13.0 0.00 0.00 0.00 24 1016.3
20260507003508 64 342 5.0 12.0 0.00 0.00 0.00 24 1016.3
20260507003221 64 350 4.0 10.0 0.00 0.00 0.00 24 1016.4
20260507002456 64 347 5.0 12.0 0.00 0.00 0.00 24 1016.3
20260507002431 64 347 7.0 12.0 0.00 0.00 0.00 24 1016.3
20260507001443 64 0 7.0 12.0 0.00 0.00 0.00 24 1016.3
20260507001203 65 347 5.0 12.0 0.00 0.00 0.00 24 1016.3
20260507000432 63 314 5.0 12.0 0.00 0.00 0.00 25 1016.1
20260506235925 63 344 4.0 12.0 0.00 0.00 0.00 24 1016.1
20260506235421 63 328 4.0 13.0 0.00 0.00 0.00 25 1016.1
20260506235132 62 332 6.0 13.0 0.00 0.00 0.00 25 1016.3
20260506234407 63 5 8.0 15.0 0.00 0.00 0.00 24 1016.3
20260506234124 63 344 7.0 15.0 0.00 0.00 0.00 24 1016.3
20260506233356 63 1 6.0 15.0 0.00 0.00 0.00 24 1016.3
20260506232849 64 44 6.0 15.0 0.00 0.00 0.00 23 1016.3
20260506232607 65 311 7.0 14.0 0.00 0.00 0.00 23 1016.3
20260506231838 65 349 8.0 15.0 0.00 0.00 0.00 24 1016.3
20260506231331 65 1 8.0 24.0 0.00 0.00 0.00 23 1016.3
20260506231047 64 7 7.0 24.0 0.00 0.00 0.00 23 1016.1
20260506230319 64 304 7.0 19.0 0.00 0.00 0.00 23 1016.3
20260506230040 65 313 9.0 19.0 0.00 0.00 0.00 23 1016.1
20260506225308 65 299 9.0 16.0 0.00 0.00 0.00 23 1016.0
20260506224802 64 295 9.0 18.0 0.00 0.00 0.00 23 1016.1
20260506224255 64 309 7.0 19.0 0.00 0.00 0.00 24 1016.0
20260506224011 65 346 6.0 19.0 0.00 0.00 0.00 23 1016.3
20260506223243 64 348 8.0 17.0 0.00 0.00 0.00 23 1016.3
20260506222739 64 30 9.0 17.0 0.00 0.00 0.00 24 1016.3
20260506222231 65 355 9.0 18.0 0.00 0.00 0.00 23 1016.4
20260506221726 65 333 8.0 18.0 0.00 0.00 0.00 24 1016.3
20260506221220 65 340 7.0 16.0 0.00 0.00 0.00 23 1016.3
20260506220713 64 37 9.0 17.0 0.00 0.00 0.00 23 1016.4
20260506220207 64 357 9.0 17.0 0.00 0.00 0.00 22 1016.5
20260506215701 64 14 8.0 17.0 0.00 0.00 0.00 22 1016.5
20260506215156 65 341 8.0 24.0 0.00 0.00 0.00 21 1016.4
20260506214649 65 312 8.0 24.0 0.00 0.00 0.00 21 1016.5
20260506214143 65 306 8.0 18.0 0.00 0.00 0.00 21 1016.5
20260506213637 64 311 9.0 18.0 0.00 0.00 0.00 24 1016.6
20260506213131 64 356 9.0 19.0 0.00 0.00 0.00 24 1016.5
20260506212626 64 284 9.0 19.0 0.00 0.00 0.00 23 1016.6
20260506212119 63 349 11.0 22.0 0.00 0.00 0.00 24 1016.6
20260506211615 64 345 11.0 22.0 0.00 0.00 0.00 22 1016.7
20260506211116 64 343 9.0 17.0 0.00 0.00 0.00 21 1016.7
20260506210616 63 339 11.0 22.0 0.00 0.00 0.00 22 1016.7
20260506210335 63 323 12.0 22.0 0.00 0.00 0.00 22 1016.9
20260506205615 63 347 11.0 22.0 0.00 0.00 0.00 23 1016.7
20260506205114 63 306 10.0 20.0 0.00 0.00 0.00 23 1016.6
20260506204616 63 347 9.0 22.0 0.00 0.00 0.00 25 1016.7
20260506204115 63 1 7.0 22.0 0.00 0.00 0.00 26 1016.7
20260506203614 63 300 8.0 16.0 0.00 0.00 0.00 26 1016.9
20260506203114 62 343 8.0 18.0 0.00 0.00 0.00 27 1016.9
20260506202615 62 336 8.0 18.0 0.00 0.00 0.00 28 1017.0
20260506202114 62 304 7.0 15.0 0.00 0.00 0.00 28 1016.9
20260506201618 62 355 8.0 23.0 0.00 0.00 0.00 28 1017.0
20260506201117 62 307 8.0 23.0 0.00 0.00 0.00 28 1016.9
20260506200621 62 311 7.0 15.0 0.00 0.00 0.00 29 1016.9
20260506200119 61 309 7.0 14.0 0.00 0.00 0.00 31 1016.9
20260506195843 61 345 9.0 5.0 0.00 0.00 0.00 30 1016.9
20260506194949 61 342 8.0 19.0 0.00 0.00 0.00 32 1016.9
20260506194450 60 357 7.0 16.0 0.00 0.00 0.00 32 1017.0
20260506193949 60 341 6.0 16.0 0.00 0.00 0.00 31 1017.1
20260506193449 61 308 7.0 15.0 0.00 0.00 0.00 32 1017.1
20260506192944 60 336 6.0 15.0 0.00 0.00 0.00 33 1017.0
20260506192445 60 308 6.0 15.0 0.00 0.00 0.00 34 1017.0
20260506191945 60 347 7.0 16.0 0.00 0.00 0.00 33 1017.1
20260506191445 60 345 8.0 16.0 0.00 0.00 0.00 33 1017.2
20260506190944 60 311 7.0 16.0 0.00 0.00 0.00 34 1017.2
20260506190446 60 345 7.0 16.0 0.00 0.00 0.00 33 1017.1
20260506185946 60 330 7.0 16.0 0.00 0.00 0.00 34 1017.2
20260506185705 59 342 7.0 16.0 0.00 0.00 0.00 35 1017.3
20260506184944 59 358 7.0 15.0 0.00 0.00 0.00 34 1017.3
20260506184440 59 351 7.0 15.0 0.00 0.00 0.00 34 1017.5
20260506183940 58 350 7.0 18.0 0.00 0.00 0.00 35 1017.3
20260506183441 59 304 7.0 18.0 0.00 0.00 0.00 34 1017.6
20260506182941 58 317 7.0 18.0 0.00 0.00 0.00 35 1017.5
20260506182441 58 286 7.0 18.0 0.00 0.00 0.00 35 1017.6
20260506181941 57 353 8.0 14.0 0.00 0.00 0.00 35 1017.6
20260506181440 58 347 8.0 18.0 0.00 0.00 0.00 35 1017.6
20260506180941 58 340 8.0 18.0 0.00 0.00 0.00 35 1017.6
20260506180705 57 358 7.0 16.0 0.00 0.00 0.00 36 1017.6
20260506175937 57 353 6.0 16.0 0.00 0.00 0.00 36 1017.7
20260506175437 56 331 5.0 12.0 0.00 0.00 0.00 36 1017.7
20260506174936 56 316 6.0 14.0 0.00 0.00 0.00 36 1017.6
20260506174437 56 4 6.0 14.0 0.00 0.00 0.00 35 1017.6
20260506173937 56 312 6.0 14.0 0.00 0.00 0.00 35 1017.6
20260506173708 55 314 6.0 14.0 0.00 0.00 0.00 37 1017.6
20260506172937 55 351 7.0 16.0 0.00 0.00 0.00 35 1017.6
20260506172437 56 331 6.0 16.0 0.00 0.00 0.00 35 1017.6
20260506172203 55 357 6.0 15.0 0.00 0.00 0.00 35 1017.5
20260506171433 55 356 6.0 15.0 0.00 0.00 0.00 36 1017.5
20260506171147 54 318 5.0 12.0 0.00 0.00 0.00 36 1017.5
20260506171028 55 322 6.0 12.0 0.00 0.00 0.00 36 1017.5
20260506170154 54 301 4.0 12.0 0.00 0.00 0.00 36 1017.6
20260506165432 53 292 4.0 12.0 0.00 0.00 0.00 37 1017.6
20260506164932 53 291 5.0 11.0 0.00 0.00 0.00 37 1017.6
20260506164433 53 288 6.0 12.0 0.00 0.00 0.00 37 1017.6
20260506163934 52 287 6.0 12.0 0.00 0.00 0.00 38 1017.6
20260506163433 53 283 4.0 12.0 0.00 0.00 0.00 37 1017.5
20260506163156 52 274 4.0 9.0 0.00 0.00 0.00 38 1017.5
20260506162428 52 274 4.0 10.0 0.00 0.00 0.00 40 1017.5
20260506161928 51 274 5.0 10.0 0.00 0.00 0.00 40 1017.5
20260506161429 51 274 4.0 8.0 0.00 0.00 0.00 40 1017.5
20260506160929 50 273 4.0 9.0 0.00 0.00 0.00 40 1017.5
20260506160428 50 273 4.0 12.0 0.00 0.00 0.00 41 1017.5
20260506155928 50 271 4.0 12.0 0.00 0.00 0.00 41 1017.5
20260506155429 50 263 4.0 10.0 0.00 0.00 0.00 41 1017.3
20260506154929 50 262 5.0 10.0 0.00 0.00 0.00 40 1017.5
20260506154432 49 256 5.0 8.0 0.00 0.00 0.00 40 1017.3
20260506153926 49 253 5.0 8.0 0.00 0.00 0.00 41 1017.5
20260506153639 49 253 5.0 8.0 0.00 0.00 0.00 42 1017.2
20260506152913 49 249 5.0 9.0 0.00 0.00 0.00 43 1017.2
20260506152408 49 247 5.0 9.0 0.00 0.00 0.00 43 1017.2
20260506151903 48 242 4.0 9.0 0.00 0.00 0.00 45 1017.2
20260506151356 47 242 4.0 9.0 0.00 0.00 0.00 46 1017.2
20260506151120 47 241 5.0 9.0 0.00 0.00 0.00 47 1017.2
20260506150344 47 239 4.0 9.0 0.00 0.00 0.00 47 1017.1
20260506150058 46 237 4.0 9.0 0.00 0.00 0.00 48 1017.1
20260506145333 46 237 4.0 8.0 0.00 0.00 0.00 50 1017.1
20260506144826 45 233 5.0 9.0 0.00 0.00 0.00 51 1017.1
20260506144319 45 232 5.0 10.0 0.00 0.00 0.00 51 1017.1
20260506144034 45 230 5.0 9.0 0.00 0.00 0.00 51 1016.9
20260506143307 44 229 5.0 9.0 0.00 0.00 0.00 52 1016.9
20260506142801 44 222 6.0 11.0 0.00 0.00 0.00 52 1016.6
20260506142255 43 224 6.0 11.0 0.00 0.00 0.00 52 1016.6
20260506141749 43 224 6.0 10.0 0.00 0.00 0.00 53 1016.5
20260506141243 43 224 6.0 10.0 0.00 0.00 0.00 53 1016.5
20260506140737 43 224 7.0 11.0 0.00 0.00 0.00 54 1016.3
20260506140231 42 224 6.0 11.0 0.00 0.00 0.00 53 1016.3
20260506135725 42 225 6.0 9.0 0.00 0.00 0.00 54 1016.3
20260506135219 42 225 6.0 10.0 0.00 0.00 0.00 54 1016.1
20260506134933 41 225 6.0 10.0 0.00 0.00 0.00 55 1016.0
20260506134207 41 225 6.0 10.0 0.00 0.00 0.00 56 1016.0
20260506133700 40 225 5.0 9.0 0.00 0.00 0.00 57 1015.9
20260506133155 40 225 5.0 9.0 0.00 0.00 0.00 58 1015.8
20260506132649 39 225 5.0 9.0 0.00 0.00 0.00 59 1015.8
20260506132405 39 225 5.0 7.0 0.00 0.00 0.00 60 1015.8
20260506131636 38 225 5.0 7.0 0.00 0.00 0.00 61 1015.8
20260506131351 38 225 4.0 7.0 0.00 0.00 0.00 62 1015.7
20260506130626 37 225 5.0 9.0 0.00 0.00 0.00 62 1015.8
20260506130119 37 225 5.0 9.0 0.00 0.00 0.00 63 1015.5
20260506125612 36 225 5.0 7.0 0.00 0.00 0.00 63 1015.4
20260506125107 36 225 5.0 9.0 0.00 0.00 0.00 64 1015.4
20260506124601 36 225 5.0 9.0 0.00 0.00 0.00 64 1015.3
20260506124055 36 225 5.0 9.0 0.00 0.00 0.00 64 1015.3
20260506123549 35 225 6.0 10.0 0.00 0.00 0.00 65 1015.3
20260506123042 35 225 6.0 10.0 0.00 0.00 0.00 65 1015.2
20260506122801 35 225 5.0 9.0 0.00 0.00 0.00 66 1015.1
20260506122255 35 225 5.0 9.0 0.00 0.00 0.00 66 1015.1
20260506121525 35 226 5.0 7.0 0.00 0.00 0.00 65 1015.1
20260506121020 35 226 5.0 7.0 0.00 0.00 0.00 65 1015.1
20260506120954 35 226 4.0 7.0 0.00 0.00 0.00 65 1015.3
20260506120007 35 225 4.0 7.0 0.00 0.00 0.00 64 1015.2
20260506115501 36 226 5.0 7.0 0.00 0.00 0.00 64 1015.2
20260506114955 36 226 5.0 7.0 0.00 0.00 0.00 63 1015.2
20260506114449 36 226 6.0 9.0 0.00 0.00 0.00 63 1015.2
20260506113943 36 226 6.0 11.0 0.00 0.00 0.00 63 1015.2
20260506113437 37 226 7.0 13.0 0.00 0.00 0.00 63 1015.1
20260506112930 37 226 7.0 13.0 0.00 0.00 0.00 63 1015.1
20260506112425 36 231 6.0 10.0 0.00 0.00 0.00 63 1014.9
20260506112140 36 232 6.0 10.0 0.00 0.00 0.00 63 1014.9
20260506111413 36 233 5.0 9.0 0.00 0.00 0.00 63 1014.9
20260506110907 36 233 5.0 9.0 0.00 0.00 0.00 63 1014.9
20260506110401 36 234 5.0 7.0 0.00 0.00 0.00 63 1014.8
20260506105855 36 234 5.0 7.0 0.00 0.00 0.00 63 1014.8
20260506105616 36 234 5.0 7.0 0.00 0.00 0.00 63 1014.8
20260506104842 36 235 4.0 7.0 0.00 0.00 0.00 63 1014.7
20260506104557 36 235 4.0 6.0 0.00 0.00 0.00 63 1014.7
20260506103831 36 235 3.0 6.0 0.00 0.00 0.00 63 1014.7
20260506103548 37 235 4.0 8.0 0.00 0.00 0.00 62 1014.6
20260506102818 37 235 4.0 8.0 0.00 0.00 0.00 62 1014.5
20260506102313 37 235 4.0 6.0 0.00 0.00 0.00 62 1014.3
20260506102031 37 235 4.0 7.0 0.00 0.00 0.00 62 1014.3
20260506101301 37 235 5.0 8.0 0.00 0.00 0.00 62 1014.3
20260506101020 37 235 5.0 8.0 0.00 0.00 0.00 62 1014.3
20260506100249 37 235 5.0 7.0 0.00 0.00 0.00 62 1014.3
20260506095743 37 235 5.0 7.0 0.00 0.00 0.00 62 1014.3
20260506095236 37 235 4.0 7.0 0.00 0.00 0.00 62 1014.3
20260506095218 37 235 4.0 6.0 0.00 0.00 0.00 62 1014.3
20260506094224 37 235 4.0 6.0 0.00 0.00 0.00 61 1014.3
20260506093719 37 235 4.0 6.0 0.00 0.00 0.00 61 1014.2
20260506093212 37 235 4.0 7.0 0.00 0.00 0.00 61 1014.2
20260506092707 37 235 4.0 8.0 0.00 0.00 0.00 61 1014.1
20260506092201 37 235 5.0 8.0 0.00 0.00 0.00 61 1014.1
20260506091655 37 236 5.0 8.0 0.00 0.00 0.00 61 1014.1
20260506091414 37 237 5.0 8.0 0.00 0.00 0.00 61 1014.1
20260506090643 37 237 5.0 8.0 0.00 0.00 0.00 61 1014.0
20260506090137 37 237 5.0 8.0 0.00 0.00 0.00 61 1014.1
20260506085631 37 239 5.0 8.0 0.00 0.00 0.00 61 1014.1
20260506085345 37 239 5.0 8.0 0.00 0.00 0.00 61 1014.1
20260506084619 37 241 5.0 7.0 0.00 0.00 0.00 62 1014.1
20260506084113 37 241 4.0 7.0 0.00 0.00 0.00 62 1014.2
20260506083606 37 242 4.0 7.0 0.00 0.00 0.00 62 1014.2
20260506083101 37 242 5.0 7.0 0.00 0.00 0.00 62 1014.2
20260506082555 37 243 5.0 7.0 0.00 0.00 0.00 62 1014.3
20260506082317 37 243 5.0 8.0 0.00 0.00 0.00 62 1014.2
20260506081543 37 244 5.0 8.0 0.00 0.00 0.00 62 1014.2
20260506081037 37 245 5.0 8.0 0.00 0.00 0.00 63 1014.5
20260506080531 37 247 4.0 8.0 0.00 0.00 0.00 63 1014.6
20260506073455 37 247 4.0 6.0 0.00 0.00 0.00 64 1014.6
20260506072949 37 247 4.0 6.0 0.00 0.00 0.00 64 1014.6
20260506072443 38 247 4.0 6.0 0.00 0.00 0.00 64 1014.6
20260506071937 38 247 5.0 7.0 0.00 0.00 0.00 65 1014.5
20260506071430 38 247 5.0 7.0 0.00 0.00 0.00 66 1014.6
20260506070926 38 247 5.0 9.0 0.00 0.00 0.00 66 1014.6
20260506070419 38 247 5.0 9.0 0.00 0.00 0.00 67 1014.5
20260506062330 38 259 5.0 8.0 0.00 0.00 0.00 71 1014.0
20260506062043 38 259 5.0 8.0 0.00 0.00 0.00 71 1014.1
20260506061318 38 263 5.0 8.0 0.00 0.00 0.00 70 1014.1
20260506061034 38 266 5.0 8.0 0.00 0.00 0.00 71 1014.0
20260506060306 38 272 5.0 7.0 0.00 0.00 0.00 71 1014.0